Weather History for Okeechobee, FL

Change the Weather History Date:

Monday, January 14, 2013

  Actual Average Record
Temperature  
Mean Temperature 66 °F -  
Max Temperature 78 °F 72 °F 85 °F (1993)
Min Temperature 55 °F 49 °F 29 °F (1981)
Cooling Degree Days 2    
Growing Degree Days 16 (Base 50)    
Moisture  
Dew Point 61 °F    
Average Humidity 84    
Maximum Humidity 100    
Minimum Humidity 54    
Precipitation  
Precipitation 0.00 in - - ()
Sea Level Pressure  
Sea Level Pressure 30.17 in    
Wind  
Wind Speed 2 mph (ESE)    
Max Wind Speed 9 mph    
Max Gust Speed -    
Visibility 8 miles    
Events Fog    
Averages and records for this station are not official NWS values.
T = Trace of Precipitation, MM = Missing Value Source: NWS Daily Summary

Daily Weather History Graph

Daily Weather History Graph

Search for Another Location

Airport:

Trip Planner

Search our weather history database for the weather conditions in past years. The results will help you decide how hot, cold, wet, or windy it might be!

Date:

Astronomy

Jan. 14, 2013 Rise Set
Actual Time 7:14 AM EST 5:50 PM EST
Civil Twilight 6:49 AM EST 6:15 PM EST
Nautical Twilight 6:20 AM EST 6:44 PM EST
Astronomical Twilight 5:52 AM EST 7:12 PM EST
Moon 9:08 AM EST (1/14) 9:10 PM EST (1/14)
Length of Visible Light 11h 26m
Length of Day
10h 36m
Waxing Crescent, 11% of the Moon is Illuminated
Jan 14
Waxing Crescent
Jan 18
First Quarter
Jan 26
Full
Feb 3
Last Quarter
Feb 10
New

Hourly Weather History & Observations

Time (EST) Temp. Dew Point Humidity Pressure Visibility Wind Dir Wind Speed Gust Speed Precip Events Conditions
12:15 AM 62.6 °F 62.6 °F 100% 30.16 in 7.0 mi Calm Calm - N/A   Clear
12:55 AM 60.8 °F 60.8 °F 100% 30.16 in 5.0 mi Calm Calm - N/A   Clear
1:15 AM 60.8 °F 60.8 °F 100% 30.16 in 4.0 mi East 3.5 mph - N/A   Clear
1:35 AM 60.8 °F 60.8 °F 100% 30.16 in 3.0 mi East 3.5 mph - N/A   Clear
2:15 AM 59.0 °F 59.0 °F 100% 30.16 in 5.0 mi Calm Calm - N/A   Clear
2:35 AM 57.2 °F 57.2 °F 100% 30.16 in 4.0 mi Calm Calm - N/A   Clear
2:55 AM 59.0 °F 59.0 °F 100% 30.16 in 4.0 mi Calm Calm - N/A   Clear
3:15 AM 59.0 °F 59.0 °F 100% 30.16 in 0.2 mi Calm Calm - N/A Fog Fog
3:35 AM 57.2 °F 57.2 °F 100% 30.16 in 0.5 mi Calm Calm - N/A Fog Fog
3:55 AM 57.2 °F 57.2 °F 100% 30.15 in 0.5 mi Calm Calm - N/A Fog Fog
4:15 AM 55.4 °F 55.4 °F 100% 30.15 in 5.0 mi Calm Calm - N/A   Clear
4:35 AM 59.0 °F 59.0 °F 100% 30.16 in 5.0 mi Calm Calm - N/A   Mostly Cloudy
4:55 AM 60.8 °F 60.8 °F 100% 30.16 in 7.0 mi Calm Calm - N/A   Overcast
5:35 AM 60.8 °F 60.8 °F 100% 30.16 in 10.0 mi Calm Calm - N/A   Overcast
5:55 AM 60.8 °F 60.8 °F 100% 30.16 in 10.0 mi Calm Calm - N/A   Overcast
6:15 AM 60.8 °F 60.8 °F 100% 30.16 in 7.0 mi Calm Calm - N/A   Overcast
6:35 AM 60.8 °F 60.8 °F 100% 30.16 in 10.0 mi East 3.5 mph - N/A   Overcast
7:15 AM 60.8 °F 60.8 °F 100% 30.16 in 7.0 mi Calm Calm - N/A   Clear
7:35 AM 60.8 °F 60.8 °F 100% 30.16 in 4.0 mi ENE 3.5 mph - N/A   Clear
7:55 AM 59.0 °F 59.0 °F 100% 30.17 in 2.5 mi Calm Calm - N/A   Clear
8:15 AM 59.0 °F 59.0 °F 100% 30.17 in 4.0 mi Calm Calm - N/A   Clear
8:35 AM 62.6 °F 60.8 °F 94% 30.18 in 5.0 mi Calm Calm - N/A   Clear
8:55 AM 62.6 °F 62.6 °F 100% 30.19 in 5.0 mi Calm Calm - N/A   Scattered Clouds
9:15 AM 64.4 °F 62.6 °F 94% 30.19 in 7.0 mi Calm Calm - N/A   Overcast
9:35 AM 68.0 °F 62.6 °F 83% 30.19 in 10.0 mi Calm Calm - N/A   Overcast
9:55 AM 69.8 °F 62.6 °F 78% 30.20 in 10.0 mi Calm Calm - N/A   Overcast
10:15 AM 71.6 °F 62.6 °F 73% 30.20 in 10.0 mi Calm Calm - N/A   Overcast
10:35 AM 73.4 °F 62.6 °F 69% 30.20 in 10.0 mi ESE 5.8 mph - N/A   Mostly Cloudy
10:55 AM 73.4 °F 60.8 °F 65% 30.20 in 10.0 mi SE 6.9 mph - N/A   Clear
11:15 AM 75.2 °F 60.8 °F 61% 30.20 in 10.0 mi SE 8.1 mph - N/A   Scattered Clouds
11:35 AM 73.4 °F 60.8 °F 65% 30.20 in 10.0 mi SSE 6.9 mph - N/A   Mostly Cloudy
11:55 AM 77.0 °F 60.8 °F 57% 30.18 in 10.0 mi SSE 8.1 mph - N/A   Overcast
12:15 PM 75.2 °F 60.8 °F 61% 30.16 in 10.0 mi SE 9.2 mph - N/A   Scattered Clouds
12:35 PM 77.0 °F 62.6 °F 61% 30.17 in 10.0 mi SE 5.8 mph - N/A   Scattered Clouds
12:55 PM 77.0 °F 62.6 °F 61% 30.16 in 10.0 mi ESE 6.9 mph - N/A   Scattered Clouds
1:15 PM 77.0 °F 62.6 °F 61% 30.15 in 10.0 mi SE 6.9 mph - N/A   Clear
1:35 PM 75.2 °F 62.6 °F 65% 30.14 in 10.0 mi ESE 6.9 mph - N/A   Clear
2:35 PM 77.0 °F 62.6 °F 61% 30.14 in 10.0 mi SE 8.1 mph - N/A   Clear
2:55 PM 78.8 °F 62.6 °F 57% 30.14 in 10.0 mi ESE 6.9 mph - N/A   Clear
3:15 PM 78.8 °F 62.6 °F 57% 30.14 in 10.0 mi SSE 8.1 mph - N/A   Clear
3:35 PM 78.8 °F 60.8 °F 54% 30.14 in 10.0 mi South 8.1 mph - N/A   Clear
3:55 PM 77.0 °F 60.8 °F 57% 30.14 in 10.0 mi South 6.9 mph - N/A   Clear
4:15 PM 78.8 °F 60.8 °F 54% 30.14 in 10.0 mi SSE 6.9 mph - N/A   Clear
4:35 PM 78.8 °F 60.8 °F 54% 30.15 in 10.0 mi South 8.1 mph - N/A   Clear
4:55 PM 77.0 °F 60.8 °F 57% 30.15 in 10.0 mi SSE 8.1 mph - N/A   Scattered Clouds
5:35 PM 77.0 °F 59.0 °F 54% 30.16 in 10.0 mi SSE 4.6 mph - N/A   Mostly Cloudy
5:55 PM 75.2 °F 60.8 °F 61% 30.17 in 10.0 mi SE 3.5 mph - N/A   Mostly Cloudy
6:15 PM 73.4 °F 60.8 °F 65% 30.17 in 10.0 mi East 3.5 mph - N/A   Overcast
6:35 PM 71.6 °F 64.4 °F 78% 30.18 in 10.0 mi East 4.6 mph - N/A   Mostly Cloudy
6:55 PM 71.6 °F 64.4 °F 78% 30.18 in 10.0 mi East 3.5 mph - N/A   Scattered Clouds
7:15 PM 69.8 °F 64.4 °F 83% 30.19 in 10.0 mi ENE 3.5 mph - N/A   Mostly Cloudy
7:35 PM 69.8 °F 64.4 °F 83% 30.19 in 10.0 mi East 4.6 mph - N/A   Scattered Clouds
7:55 PM 68.0 °F 64.4 °F 88% 30.19 in 10.0 mi East 3.5 mph - N/A   Clear
8:15 PM 68.0 °F 64.4 °F 88% 30.19 in 10.0 mi East 4.6 mph - N/A   Clear
8:35 PM 66.2 °F 62.6 °F 88% 30.18 in 10.0 mi East 3.5 mph - N/A   Clear
8:55 PM 66.2 °F 62.6 °F 88% 30.18 in 10.0 mi East 4.6 mph - N/A   Clear
9:15 PM 64.4 °F 62.6 °F 94% 30.18 in 10.0 mi East 3.5 mph - N/A   Clear
9:35 PM 64.4 °F 62.6 °F 94% 30.18 in 10.0 mi East 3.5 mph - N/A   Clear
9:55 PM 64.4 °F 62.6 °F 94% 30.18 in 10.0 mi East 3.5 mph - N/A   Clear
10:15 PM 64.4 °F 62.6 °F 94% 30.18 in 10.0 mi East 3.5 mph - N/A   Clear
10:35 PM 62.6 °F 62.6 °F 100% 30.18 in 10.0 mi Calm Calm - N/A   Clear
10:55 PM 62.6 °F 62.6 °F 100% 30.18 in 10.0 mi Calm Calm - N/A   Clear
11:15 PM 62.6 °F 62.6 °F 100% 30.17 in 10.0 mi ESE 3.5 mph - N/A   Scattered Clouds
11:35 PM 62.6 °F 62.6 °F 100% 30.17 in 10.0 mi East 3.5 mph - N/A   Scattered Clouds
11:55 PM 62.6 °F 62.6 °F 100% 30.17 in 10.0 mi Calm Calm - N/A   Clear